CAPE
0 0 0 0 47 0 45 0 60 572 658 310 153 63 7 0 5 12 59 41 6 19 27 16 38 29 22 7 0 0 1 0 0 6 70 71 81 114 81 27 131 311 319 419
0 0 0 0 60 25 0 8 63 132 678 348 245 217 212 115 7 0 47 11 0 1 5 17 33 32 22 35 3 0 0 0 0 2 2 3 111 272 530 156 607 350 443 581
0 0 0 1 133 65 24 52 38 17 310 54 0 2 65 14 15 7 55 97 0 8 6 3 0 20 1 30 14 0 0 0 0 0 1 26 208 0 18 133 550 683 713 404
0 0 0 172 144 86 59 73 213 327 339 122 19 4 0 0 0 7 21 126 1 0 1 10 1 0 0 0 2 0 0 0 0 0 0 19 64 114 2 9 69 482 521 653
0 0 133 215 161 109 67 102 129 636 228 33 5 26 0 0 0 1 36 139 44 2 0 3 0 0 0 0 0 0 0 0 0 0 0 0 35 17 0 0 0 0 0 203
0 0 170 113 164 128 42 17 3 294 4 143 19 16 0 0 0 0 5 161 101 0 0 0 0 0 0 0 0 0 0 0 0 0 0 0 103 373 71 1 74 115 15 518
0 0 11 21 21 36 7 0 0 0 67 8 0 0 0 0 0 0 3 51 89 1 0 0 0 0 0 0 0 0 0 0 0 0 0 0 37 398 357 307 92 294 392 697
0 0 0 0 0 0 0 0 0 0 0 0 0 8 0 1 1 0 23 78 90 39 0 0 0 0 0 0 0 0 0 0 0 0 0 0 0 215 449 450 245 227 369 486
0 0 0 0 0 0 0 0 0 0 0 0 0 0 11 43 4 0 0 0 13 76 56 1 11 0 0 0 0 0 7 0 0 0 0 0 9 168 390 431 225 308 149 93
0 0 0 0 0 0 0 0 0 0 0 0 1 5 75 64 264 86 13 0 19 9 121 83 0 0 0 0 0 0 0 0 22 84 6 16 84 155 325 414 416 409 305 110
0 0 0 0 0 0 0 0 0 0 0 0 11 19 0 25 34 162 210 67 40 43 42 149 83 0 0 0 0 0 0 0 0 0 45 4 102 216 284 384 438 414 366 241
0 0 0 0 0 0 0 0 0 0 0 0 1 5 0 0 3 83 158 154 41 68 60 159 162 74 11 0 0 0 3 24 0 0 3 0 0 222 377 453 526 559 349 139
0 0 0 0 0 0 1 0 0 0 0 0 0 4 0 0 17 50 45 32 147 270 274 256 175 90 23 9 0 0 3 36 43 24 35 66 20 78 351 529 571 587 451 129
0 0 0 0 0 0 0 0 0 0 1 0 0 6 35 73 73 179 243 250 408 397 195 196 216 112 73 44 44 17 24 0 92 216 120 208 241 140 201 436 684 700 438 433
0 0 0 0 0 0 0 0 0 0 0 42 0 11 6 60 115 261 383 315 179 200 343 294 280 226 128 91 105 110 43 0 0 262 519 405 372 376 421 582 693 800 568 493
0 0 0 0 0 0 0 0 0 0 0 0 0 0 0 0 0 20 153 322 393 307 526 442 471 586 635 330 179 242 323 240 152 300 515 682 636 715 708 960 801 277 239 309
0 0 0 0 0 0 0 0 0 0 0 0 0 33 0 0 16 2 43 455 546 451 223 76 545 960 1257 1216 1221 1429 888 707 234 133 155 414 765 696 674 578 71 104 76 36
0 0 0 0 0 0 0 0 0 0 0 0 0 0 0 0 0 2 0 322 354 41 419 740 1273 1031 837 725 750 783 699 705 773 694 560 343 372 462 403 474 323 19 85 47
0 0 0 0 0 0 0 0 0 0 0 0 0 0 2 0 7 167 636 0 97 700 852 826 659 580 674 754 404 311 255 247 255 267 237 151 273 397 224 406 315 130 0 0
0 0 0 0 0 0 0 0 0 0 0 0 0 0 0 0 68 10 995 979 1015 767 689 629 376 232 268 40 0 0 1 0 0 1 1 30 105 159 166 255 399 240 0 0
0 0 0 0 0 0 0 0 0 0 0 0 0 0 0 0 0 174 658 683 473 430 371 105 43 19 0 0 0 0 0 0 0 0 0 0 44 152 56 28 175 388 182 20
0 0 0 0 0 0 0 0 0 0 0 0 0 5 380 715 816 701 578 443 400 276 86 0 0 1 1 0 0 0 0 0 0 0 0 1 1 1 1 1 1 80 290 256
0 0 0 0 0 0 0 0 0 0 0 0 625 1036 1036 1012 904 507 437 398 303 134 8 0 0 0 0 0 0 0 0 0 0 0 0 0 0 1 1 1 1 0 1 0
0 0 0 0 0 0 0 0 0 9 37 1 1043 1120 963 1054 651 545 337 136 68 4 0 0 0 1 1 0 0 0 0 0 1 0 0 1 0 0 0 0 1 0 0 1
0 2 0 0 0 0 0 0 0 295 972 1028 1222 996 700 675 571 365 180 115 1 0 0 0 0 0 0 1 0 0 0 0 0 0 1 1 1 1 0 0 1 0 1 0
9 0 0 4 0 0 0 6 9 321 866 993 939 734 402 269 204 52 33 0 0 6 0 14 3 1 1 1 1 0 0 0 0 0 0 0 0 0 1 1 0 0 1 1
CIN
-0 -0 -0 -0 -153 -86 -158 -0 -99 -46 -44 -68 -102 -112 -134 -0 -206 -167 -206 -229 -222 -225 -167 -196 -191 -180 -168 -199 -0 -0 -130 -0 -0 -214 -130 -125 -121 -132 -178 -227 -211 -197 -145 -123
-0 -0 -0 -0 -207 -178 -0 -147 -144 -189 -91 -101 -125 -139 -127 -136 -246 -0 -170 -149 -0 -57 -120 -185 -215 -211 -196 -195 -103 -0 -0 -0 -0 -220 -216 -155 -118 -129 -115 -207 -165 -156 -123 -111
-0 -0 -0 -13 -187 -171 -182 -135 -155 -128 -177 -255 -47 -104 -231 -270 -256 -263 -215 -147 -0 -259 -258 -128 -0 -224 -21 -202 -234 -0 -0 -0 -0 -0 -81 -174 -121 -15 -207 -161 -135 -109 -104 -126
-0 -0 -0 -190 -162 -165 -129 -166 -98 -130 -153 -103 -280 -40 -0 -0 -32 -295 -269 -219 -111 -0 -196 -264 -129 -0 -0 -0 -43 -0 -0 -0 -0 -0 -0 -185 -127 -94 -29 -31 -186 -128 -129 -103
-0 -0 -150 -157 -157 -179 -99 -148 -105 -103 -155 -167 -137 -161 -0 -0 -0 -301 -342 -244 -271 -298 -0 -273 -0 -0 -0 -0 -0 -0 -0 -0 -0 -0 -0 -0 -204 -217 -0 -0 -0 -0 -0 -156
-0 -0 -191 -189 -131 -184 -127 -98 -141 -174 -154 -76 -174 -154 -0 -0 -0 -0 -417 -315 -271 -0 -0 -94 -0 -11 -0 -0 -0 -0 -0 -0 -0 -0 -0 -0 -147 -122 -208 -23 -194 -164 -136 -142
-0 -0 -70 -72 -43 -162 -68 -0 -0 -0 -89 -33 -0 -106 -0 -0 -0 -0 -447 -346 -287 -26 -0 -0 -0 -0 -0 -0 -0 -0 -0 -0 -0 -0 -0 -0 -231 -138 -136 -129 -166 -146 -152 -131
-0 -0 -0 -0 -0 -0 -0 -0 -0 -0 -0 -0 -0 -167 -0 -84 -52 -82 -375 -333 -302 -323 -0 -0 -0 -0 -0 -0 -0 -0 -0 -0 -0 -0 -0 -0 -0 -195 -160 -129 -159 -172 -148 -133
-0 -0 -0 -0 -0 -0 -0 -0 -0 -0 -0 -0 -0 -0 -17 -275 -29 -0 -0 -0 -328 -334 -315 -31 -379 -0 -0 -0 -0 -0 -257 -0 -0 -0 -0 -0 -319 -237 -167 -134 -159 -149 -198 -205
-0 -0 -0 -0 -0 -0 -0 -0 -0 -0 -0 -9 -103 -288 -126 -155 -79 -200 -139 -0 -449 -409 -342 -327 -0 -0 -0 -0 -0 -0 -0 -0 -361 -307 -147 -232 -247 -233 -197 -145 -135 -144 -166 -224
-0 -0 -0 -0 -0 -0 -0 -0 -0 -0 -0 -0 -167 -182 -0 -227 -231 -124 -154 -414 -388 -355 -412 -346 -334 -0 -0 -0 -0 -0 -0 -0 -0 -112 -314 -241 -285 -232 -195 -156 -143 -159 -166 -204
-0 -0 -0 -0 -0 -0 -0 -0 -0 -0 -0 -0 -3 -224 -0 -0 -411 -250 -163 -173 -365 -384 -326 -354 -365 -435 -430 -0 -0 -0 -145 -444 -0 -0 -335 -0 -17 -253 -210 -184 -153 -133 -171 -233
-0 -0 -0 -0 -0 -0 -84 -0 -0 -0 -0 -0 -0 -252 -0 -65 -364 -280 -253 -319 -216 -286 -332 -385 -413 -453 -530 -579 -0 -0 -223 -495 -425 -402 -326 -304 -362 -294 -218 -186 -182 -166 -148 -221
-0 -0 -0 -0 -0 -0 -0 -0 -0 -0 -68 -0 -0 -138 -245 -260 -294 -308 -252 -194 -146 -218 -355 -382 -402 -431 -477 -506 -548 -545 -555 -0 -444 -361 -310 -240 -245 -278 -219 -183 -169 -177 -185 -145
-0 -0 -0 -0 -0 -0 -0 -0 -0 -0 -2 -38 -0 -136 -258 -258 -307 -246 -180 -254 -316 -281 -262 -287 -288 -345 -404 -446 -490 -509 -465 -0 -0 -290 -224 -228 -246 -212 -139 -120 -173 -177 -174 -145
-0 -0 -0 -0 -0 -0 -0 -0 -0 -0 -0 -0 -0 -0 -0 -0 -0 -393 -279 -277 -229 -257 -214 -231 -226 -267 -293 -334 -379 -408 -381 -356 -374 -259 -212 -206 -185 -150 -121 -89 -82 -155 -165 -129
-0 -0 -0 -0 -0 -0 -0 -0 -0 -0 -0 -0 -0 -145 -0 -0 -261 -50 -314 -252 -183 -176 -241 -270 -274 -306 -275 -261 -245 -210 -262 -283 -364 -345 -310 -226 -145 -162 -139 -124 -154 -160 -166 -198
-0 -0 -0 -0 -0 -0 -0 -0 -0 -0 -0 -0 -0 -0 -0 -0 -0 -128 -9 -224 -212 -349 -329 -392 -348 -354 -345 -330 -285 -257 -250 -226 -203 -198 -209 -225 -189 -182 -190 -157 -171 -305 -189 -199
-0 -0 -0 -0 -0 -0 -0 -0 -41 -0 -0 -0 -0 -0 -390 -0 -352 -315 -455 -0 -424 -380 -429 -457 -445 -417 -342 -276 -323 -333 -318 -293 -264 -260 -228 -237 -209 -161 -215 -159 -163 -249 -0 -0
-0 -0 -0 -0 -0 -0 -0 -0 -0 -0 -0 -0 -0 -0 -0 -75 -140 -203 -423 -468 -452 -492 -473 -442 -439 -423 -373 -391 -0 -0 -0 -0 -0 -0 -0 -270 -233 -186 -200 -173 -139 -137 -0 -0
-0 -0 -0 -0 -0 -0 -0 -0 -0 -0 -0 -0 -0 -0 -0 -0 -0 -428 -566 -517 -563 -520 -480 -524 -289 -253 -0 -0 -0 -0 -0 -0 -0 -0 -0 -0 -206 -161 -165 -230 -159 -90 -139 -64
-0 -0 -0 -0 -0 -0 -0 -0 -0 -0 -0 -0 -0 -220 -435 -414 -483 -505 -501 -510 -472 -455 -503 -0 -0 -0 -0 -0 -0 -0 -0 -0 -0 -0 -0 -0 -0 -0 -0 -0 -0 -172 -43 -51
-0 -0 -0 -0 -0 -0 -0 -0 -0 -0 -0 -0 -370 -389 -374 -401 -400 -475 -455 -436 -413 -415 -402 -0 -0 -0 -0 -0 -0 -0 -0 -0 -0 -0 -0 -0 -0 -0 -0 -0 -0 -0 -0 -0
-0 -0 -0 -0 -0 -0 -0 -0 -0 -85 -475 -54 -371 -410 -381 -294 -393 -381 -426 -483 -465 -388 -0 -0 -0 -0 -0 -0 -0 -0 -0 -0 -0 -0 -0 -0 -0 -0 -0 -0 -0 -0 -0 -0
-0 -26 -0 -0 -0 -0 -0 -0 -0 -395 -333 -300 -303 -339 -351 -354 -331 -368 -420 -416 -107 -0 -0 -0 -0 -0 -0 -0 -0 -0 -0 -0 -0 -0 -0 -0 -0 -0 -0 -0 -0 -0 -0 -0
-43 -0 -0 -85 -0 -0 -0 -264 -435 -234 -249 -287 -287 -318 -384 -420 -406 -471 -478 -103 -0 -306 -0 -216 -96 -34 -0 -0 -0 -0 -0 -0 -0 -0 -0 -0 -0 -0 -0 -0 -0 -0 -0 -0
Wind_Speed
3 0 8 9 6 2 6 3 2 3 3 5 7 8 13 7 6 7 6 10 11 12 10 7 9 9 8 7 9 8 8 7 4 2 2 1 2 3 3 4 6 4 4 3
5 7 8 4 6 3 4 5 5 1 3 7 1 12 8 7 6 7 8 8 13 7 8 8 9 10 10 10 10 8 9 7 5 3 2 2 1 3 3 2 3 4 4 3
7 11 5 6 5 6 4 6 7 5 7 4 1 7 9 6 6 4 6 5 11 16 12 10 10 11 10 10 10 10 10 8 6 6 2 2 1 1 2 2 1 3 4 4
6 6 7 4 5 6 3 16 11 6 3 2 2 6 6 6 6 7 10 8 9 13 12 12 12 11 12 12 9 8 8 9 7 8 4 5 4 3 3 2 1 2 2 5
8 2 4 4 8 9 13 13 13 11 4 2 3 2 6 3 6 10 10 13 10 15 16 16 15 15 14 11 11 9 8 7 7 7 6 5 5 4 2 1 3 4 3 6
8 3 8 11 3 18 1 5 6 6 3 3 4 6 6 6 8 6 9 10 11 12 14 13 12 10 10 9 10 10 10 10 7 7 7 8 8 6 3 3 4 4 3 3
3 6 4 5 5 2 4 7 2 4 2 8 5 4 12 6 6 7 13 12 10 11 11 12 13 11 8 12 12 11 11 12 9 9 8 8 8 7 7 5 4 4 3 2
4 8 9 7 12 11 8 10 7 6 5 3 3 6 8 2 3 3 7 9 8 11 9 13 14 13 12 13 13 14 13 13 10 10 10 7 8 5 4 5 4 4 4 4
6 7 5 6 4 11 6 5 4 7 3 3 4 7 9 5 6 6 7 6 11 12 13 13 14 14 14 12 14 14 13 12 9 11 8 8 8 8 7 7 4 3 4 4
5 3 3 3 6 3 9 7 3 3 3 4 3 5 6 4 3 2 6 5 6 7 9 9 9 12 12 12 10 9 11 13 13 12 9 9 10 8 7 6 6 6 6 5
5 5 10 4 4 10 2 1 6 6 5 6 2 8 7 8 6 8 6 7 8 8 9 11 12 10 13 10 10 11 10 11 11 11 11 10 9 9 7 7 6 7 6 6
11 6 6 12 4 5 7 6 6 7 4 1 4 8 3 6 8 7 8 8 6 9 12 12 12 11 10 11 10 12 11 10 11 10 7 9 9 8 9 9 8 7 7 6
7 3 2 8 8 3 3 4 6 5 4 6 6 7 4 1 5 9 9 8 6 8 8 8 7 8 9 8 8 10 11 14 10 8 9 8 9 7 11 10 8 7 7 7
9 5 8 9 9 5 3 4 4 6 5 4 7 4 5 5 6 7 8 9 10 9 10 7 6 8 8 9 10 10 10 8 7 7 10 11 10 11 13 10 8 9 9 8
4 5 4 5 7 5 4 4 8 5 5 7 6 10 10 13 13 13 13 11 8 7 6 7 6 7 7 7 7 6 7 7 9 9 9 11 9 9 9 8 9 8 8 9
6 2 4 3 4 3 4 5 2 1 3 6 3 7 5 3 4 4 7 8 7 7 7 7 7 7 6 6 7 6 7 8 7 8 12 10 7 7 8 8 4 3 1 3
3 3 4 5 2 2 3 7 6 5 5 9 6 12 7 5 8 9 8 8 10 9 8 8 8 6 4 4 3 5 5 5 7 8 8 7 6 8 8 6 9 6 3 3
3 3 3 3 2 5 9 2 6 8 5 7 3 7 10 9 11 6 4 10 9 7 8 7 7 7 5 5 6 5 4 3 3 3 3 3 5 6 6 8 10 10 12 18
2 5 2 2 3 6 3 4 7 8 9 6 9 6 3 5 5 1 2 4 4 6 3 5 5 4 5 5 5 7 6 5 4 3 1 2 1 4 5 8 11 9 9 10
5 4 5 3 4 8 9 6 7 2 4 3 3 8 9 6 5 7 3 6 7 7 6 8 6 4 5 4 5 6 5 4 2 3 4 4 3 4 5 7 9 9 12 13
3 2 3 4 5 7 6 7 4 5 10 6 6 5 8 7 6 3 6 4 5 5 7 6 6 5 4 3 5 6 4 2 2 4 4 4 5 3 5 5 4 8 10 10
5 4 4 2 2 6 4 1 6 6 7 3 4 5 4 4 5 6 6 7 7 8 6 5 6 5 4 4 5 5 3 2 3 3 4 4 4 2 3 3 0 4 7 10
1 6 4 7 6 5 5 1 3 5 4 3 7 5 9 9 6 7 7 8 6 6 5 5 6 6 4 4 5 5 1 3 2 3 4 4 5 4 3 2 3 2 3 4
4 3 2 4 4 3 4 6 7 4 3 3 3 11 8 8 7 6 6 5 5 5 5 5 7 7 6 5 4 4 4 4 3 3 4 5 5 5 6 4 3 2 3 3
5 3 0 5 8 5 5 6 6 7 13 8 5 5 7 10 5 4 5 5 6 6 6 5 3 4 6 5 6 5 5 5 4 4 3 6 5 5 5 6 4 3 3 1
5 6 3 6 6 3 7 3 9 2 7 8 6 6 4 7 7 5 5 4 5 6 5 5 5 1 1 3 4 5 4 4 5 4 2 4 5 4 3 4 6 15 11 14
Wind_Direction
347 129 218 199 198 255 143 158 86 239 211 179 219 246 257 242 239 196 188 179 183 195 192 179 182 173 165 169 170 179 171 198 150 141 164 203 235 264 278 254 273 237 206 197
12 254 240 170 188 115 140 154 230 286 220 172 189 260 253 232 234 210 204 177 190 161 182 175 172 178 183 181 179 178 192 182 180 161 163 159 153 254 257 285 261 195 195 203
173 237 116 164 170 166 170 204 199 192 146 127 41 282 227 230 206 178 238 208 186 178 182 183 179 187 182 190 187 188 192 191 183 175 136 100 97 327 287 280 302 222 214 227
221 276 225 154 203 143 228 204 199 128 88 270 139 271 278 195 213 202 190 210 177 181 183 188 183 186 189 197 187 190 195 190 193 167 163 165 179 213 242 228 283 249 280 237
237 251 155 179 208 161 234 164 200 173 123 48 208 319 270 113 219 237 206 190 201 183 180 190 190 194 195 187 185 190 193 198 192 169 180 183 198 212 215 239 257 248 273 264
242 247 159 212 156 191 41 108 56 59 80 309 203 166 269 188 208 225 214 195 193 186 192 194 192 190 189 182 188 188 190 212 188 184 186 195 209 228 207 213 234 248 236 258
309 233 231 161 157 237 94 66 15 9 24 225 3 131 249 249 216 212 192 194 189 193 182 180 180 188 176 186 187 193 193 214 212 189 194 206 217 219 211 216 207 216 205 220
176 318 183 189 190 179 180 154 161 199 203 260 345 230 258 266 267 176 153 182 171 190 186 192 189 190 189 190 193 188 198 209 197 200 205 206 219 224 223 213 194 200 206 215
154 263 288 196 160 131 183 187 193 112 19 97 238 291 306 334 126 136 139 153 191 197 201 192 192 193 193 194 197 195 195 207 208 212 203 205 209 205 215 216 206 218 212 230
208 321 260 345 105 47 146 166 87 11 149 240 270 289 240 279 193 250 151 180 197 206 216 211 188 196 197 200 191 186 201 199 206 200 198 212 218 215 209 203 205 206 221 222
146 126 279 45 186 184 82 222 55 121 124 161 179 263 216 210 214 224 243 169 205 214 208 202 206 192 198 194 191 195 196 201 202 204 205 202 205 206 198 212 212 204 209 222
206 153 220 229 283 182 151 177 134 124 227 177 158 271 253 211 204 176 244 258 195 206 205 198 194 189 183 196 186 194 203 211 210 201 199 204 212 196 201 212 207 194 209 207
178 227 86 345 356 11 175 191 120 111 80 190 144 255 298 1 179 192 200 223 224 191 187 195 184 177 185 190 192 200 204 214 212 187 197 205 210 208 217 216 205 191 200 206
112 128 167 188 203 164 174 166 168 124 125 180 222 218 273 271 241 197 178 181 203 202 194 187 191 187 189 196 195 200 205 198 197 187 204 215 208 213 232 216 199 197 193 201
89 161 165 245 172 172 175 204 168 169 205 153 226 192 210 208 202 199 190 185 170 183 163 182 195 210 204 195 199 193 212 191 194 203 207 218 209 207 221 216 200 193 191 210
343 178 127 246 304 194 163 222 226 246 186 283 170 238 214 145 129 193 208 146 163 177 180 185 196 202 213 205 205 198 210 200 166 201 216 212 198 205 203 205 214 161 198 270
11 99 85 230 265 85 6 224 213 210 203 154 159 224 151 187 196 200 189 179 181 193 191 195 184 166 148 154 150 214 222 190 187 199 221 225 202 214 215 196 159 135 64 321
147 84 94 235 79 210 234 236 217 212 237 187 175 198 195 194 194 171 216 192 194 188 189 184 161 146 146 129 121 101 76 74 147 176 213 202 211 220 200 188 177 161 172 219
187 116 108 163 196 279 299 233 188 178 246 205 178 182 139 107 86 263 229 194 220 191 152 112 104 103 112 107 100 106 97 91 87 61 43 130 226 256 202 206 190 191 186 208
83 69 130 128 173 217 227 335 5 87 261 220 207 168 152 120 148 239 166 151 128 112 108 113 101 88 86 66 81 77 68 71 45 351 315 311 216 228 250 220 211 184 189 198
29 25 179 169 211 276 244 273 278 118 236 164 156 166 151 174 199 172 122 88 99 109 114 101 103 111 114 104 103 98 100 72 295 295 303 290 273 222 257 256 210 204 198 202
161 148 206 138 185 259 206 213 160 219 298 225 143 149 121 105 104 113 113 119 117 127 122 116 115 112 117 120 108 100 81 356 356 340 319 311 319 328 283 243 220 202 194 198
193 181 212 175 220 261 313 324 228 201 212 228 135 139 143 140 161 150 148 148 141 139 118 98 111 112 106 105 114 119 16 44 30 31 29 15 11 357 356 66 84 80 99 138
315 154 193 2 229 227 302 281 270 118 102 354 125 137 146 143 138 137 146 122 123 128 143 150 147 148 154 147 132 137 102 79 48 59 51 43 39 16 15 27 28 82 91 108
227 345 49 277 288 306 270 267 271 73 86 69 78 124 143 135 139 141 131 142 158 161 166 156 173 168 160 157 146 150 137 118 80 21 69 69 54 47 52 48 8 43 25 81
194 210 170 234 232 220 255 269 302 111 118 134 137 118 99 109 135 129 138 160 153 144 140 133 124 93 254 180 159 152 149 139 111 82 6 78 75 36 44 60 73 49 53 51